Retour au catalogue

STARLINK-34930

ActifCommunicationsVLEO
NORAD 65688·PAYLOAD·🇺🇸 United States

Lancé Sep 21, 2025 depuis Cape Canaveral Space Force Station

Loading…

Prochains Passages (prochaines 24 heures)

TLE

FraisSource: CelesTrak SupGP

Époque: Sep 15, 2026, 02:50 UTC

1 65688C 25212N   26258.11854167 -.00037044  00000+0 -11912-2 0  2584
2 65688  53.1588 184.6701 0001259  71.5912 223.1808 15.31722109    10

Suivez STARLINK-34930 en temps réel avec AllMySat

Download on the App Store